Regional Weather Roundup
Issued by NWS

Home | Current Version | Previous Version | Text Only | Print | Product List | Glossary Off
Versions: 1 2 3 4 5 6 7 8 9 10 11 12 13 14 15 16 17 18 19 20 21 22 23 24 25 26 27 28 29 30 31 32 33 34 35 36 37 38 39 40 41 42 43 44 45 46 47 48 49 50

000
ASUS45 KCYS 211410
RWRWY

WYOMING REGIONAL WEATHER ROUNDUP
NATIONAL WEATHER SERVICE CHEYENNE WY
800 AM MDT THU MAY 21 2015

NOTE:  "FAIR" INDICATES FEW OR NO CLOUDS BELOW 12,000 FEET
WITH NO SIGNIFICANT WEATHER AND/OR OBSTRUCTIONS TO VISIBILITY.

WYZ001-211500-
YELLOWSTONE NATIONAL PARK

CITY           SKY/WX    TMP DP  RH WIND       PRES   REMARKS
LK YELLOWSTONE   N/A     40  33  76 CALM      30.17F
W YELLOWSTONE  NOT AVBL

$$
WYZ002>013-054>058-071-098>099-211500-
NORTHERN WYOMING

CITY           SKY/WX    TMP DP  RH WIND       PRES   REMARKS
JACKSON        MOSUNNY   45  39  81 CALM      30.14S
CODY           FAIR      45  39  81 N3        30.13S
GREYBULL       FAIR      46  38  73 E6        30.14F
WORLAND        FAIR      47  36  65 S5        30.14S
SHERIDAN       FAIR      43  36  76 CALM      30.15F
BUFFALO        FAIR      44  37  76 S16       30.16S
GILLETTE       FAIR      42  36  79 SE12      30.21S
HULETT         FAIR      43  34  70 CALM      30.24S
NEWCASTLE      FAIR      43  32  65 SE12      30.26S

$$
WYZ014>020-022>026-101>103-211500-
CENTRAL WYOMING

CITY           SKY/WX    TMP DP  RH WIND       PRES   REMARKS
BIG PINEY      CLOUDY    40  35  83 CALM      30.17S
PINEDALE       FAIR      41  34  75 CALM      30.18S
DUBOIS         CLOUDY    37  34  87 SE3       30.16S
LANDER         PTSUNNY   41  35  79 CALM      30.16S
RIVERTON       FAIR      42  36  79 NW6       30.17S
CASPER         CLOUDY    39  35  86 E8        30.18F WCI  33
DOUGLAS        PTSUNNY   40  36  86 SE12      30.21S WCI  33

$$
WYZ021-027>030-104>119-211500-
SOUTHERN WYOMING

CITY           SKY/WX    TMP DP  RH WIND       PRES   REMARKS
EVANSTON       CLOUDY    40  39  97 E15       30.12S WCI  32
KEMMERER       CLOUDY    39  37  93 NE10      30.16S WCI  32
FORT BRIDGER   FOG       39  39 100 E5        30.17F VSB 0
ROCK SPRINGS   CLOUDY    40  37  89 E8        30.16S WCI  34
DIXON          FAIR      43  38  81 E8        30.18F
RAWLINS        CLOUDY    39  36  89 E7        30.18F WCI  34
SARATOGA       CLOUDY    37  37 100 NE3       30.21S FOG
LARAMIE        FAIR      38  35  89 S14       30.18S WCI  30
CHEYENNE       FOG       37  36  96 S13       30.22S VSB 1/4 WCI  29
TORRINGTON     CLOUDY    42  37  82 SE8       30.24S
PINE BLUFFS    CLOUDY    39  36  87 S12       30.25F WCI  32

$$


USA.gov is the U.S. government's official web portal to all federal, state and local government web resources and services.